When you browse on this site, cookies collect data to enhance your experience and personalize the content and advertising you see.
Visit our Privacy Policy to learn more. By continuing to use the site, you agree to this use of cookies and data.
EN

Hourly Weather Shkoder

Today, 10 July, Friday

Time Temperature Precipitation Wind Pressure Humidity
00:00 +21°C° 0 mm 2 mps 741 mmHg 59%
01:00 +20°C° 0 mm 2 mps 741 mmHg 61%
02:00 +20°C° 0 mm 2 mps 741 mmHg 61%
03:00 +20°C° 0 mm 2 mps 740 mmHg 61%
04:00 +19°C° 0 mm 2 mps 740 mmHg 61%
05:00 +21°C° 0 mm 2 mps 740 mmHg 59%
06:00 +24°C° 0 mm 2 mps 740 mmHg 57%
07:00 +26°C° 0 mm 2 mps 741 mmHg 54%
08:00 +27°C° 0 mm 2 mps 741 mmHg 50%
09:00 +29°C° 0 mm 2 mps 741 mmHg 46%
10:00 +31°C° 0 mm 2 mps 740 mmHg 42%
11:00 +31°C° 0 mm 2 mps 740 mmHg 40%
12:00 +32°C° 0 mm 2 mps 740 mmHg 38%
13:00 +34°C° 0 mm 2 mps 740 mmHg 36%
14:00 +34°C° 0 mm 2 mps 740 mmHg 37%
15:00 +34°C° 0 mm 2 mps 740 mmHg 38%
16:00 +34°C° 0 mm 2 mps 739 mmHg 38%
17:00 +31°C° 0 mm 1 mps 739 mmHg 45%
18:00 +28°C° 0 mm 1 mps 739 mmHg 51%
19:00 +26°C° 0 mm 1 mps 739 mmHg 57%
20:00 +26°C° 0 mm 1 mps 739 mmHg 59%
21:00 +25°C° 0 mm 1 mps 739 mmHg 60%
22:00 +24°C° 0 mm 1 mps 739 mmHg 61%
23:00 +24°C° 0 mm 1 mps 739 mmHg 61%

Tomorrow, 11 July, Saturday

Time Temperature Precipitation Wind Pressure Humidity
00:00 +23°C° 0 mm 1 mps 739 mmHg 61%
01:00 +23°C° 0 mm 1 mps 740 mmHg 61%
02:00 +23°C° 0 mm 1 mps 739 mmHg 62%
03:00 +23°C° 0 mm 1 mps 739 mmHg 63%
04:00 +22°C° 0 mm 1 mps 739 mmHg 63%
05:00 +24°C° 0 mm 1 mps 739 mmHg 60%
06:00 +26°C° 0 mm 1 mps 739 mmHg 58%
07:00 +27°C° 0 mm 1 mps 739 mmHg 55%
08:00 +29°C° 0 mm 1 mps 739 mmHg 52%
09:00 +30°C° 0 mm 1 mps 739 mmHg 48%
10:00 +32°C° 0 mm 1 mps 739 mmHg 44%
11:00 +32°C° 0.1 mm 2 mps 739 mmHg 43%
12:00 +34°C° 0.1 mm 2 mps 739 mmHg 42%
13:00 +34°C° 0.1 mm 3 mps 738 mmHg 41%
14:00 +34°C° 0.3 mm 3 mps 738 mmHg 42%
15:00 +32°C° 0.3 mm 2 mps 738 mmHg 43%
16:00 +32°C° 0.3 mm 2 mps 738 mmHg 44%
17:00 +30°C° 0.1 mm 2 mps 738 mmHg 49%
18:00 +28°C° 0.1 mm 1 mps 738 mmHg 54%
19:00 +24°C° 0.1 mm 0 mps 738 mmHg 59%
20:00 +25°C° 0 mm 1 mps 738 mmHg 60%
21:00 +25°C° 0 mm 1 mps 738 mmHg 62%
22:00 +24°C° 0 mm 1 mps 739 mmHg 63%
23:00 +24°C° 0 mm 1 mps 739 mmHg 64%

Day after tomorrow, 12 July, Sunday

Time Temperature Precipitation Wind Pressure Humidity
00:00 +23°C° 0 mm 1 mps 738 mmHg 64%
01:00 +23°C° 0 mm 1 mps 738 mmHg 64%
02:00 +23°C° 0 mm 1 mps 738 mmHg 65%
03:00 +23°C° 0 mm 1 mps 738 mmHg 66%
04:00 +22°C° 0 mm 1 mps 739 mmHg 67%
05:00 +24°C° 0 mm 2 mps 739 mmHg 66%
06:00 +25°C° 0 mm 2 mps 739 mmHg 64%
07:00 +27°C° 0 mm 2 mps 740 mmHg 62%
08:00 +28°C° 0 mm 2 mps 740 mmHg 59%
09:00 +29°C° 0 mm 2 mps 740 mmHg 56%
10:00 +30°C° 0 mm 3 mps 740 mmHg 53%
11:00 +31°C° 0.1 mm 3 mps 740 mmHg 52%
12:00 +31°C° 0.1 mm 3 mps 740 mmHg 51%
13:00 +33°C° 0.1 mm 3 mps 740 mmHg 50%
14:00 +31°C° 0.3 mm 3 mps 740 mmHg 52%
15:00 +31°C° 0.3 mm 3 mps 740 mmHg 53%
16:00 +30°C° 0.3 mm 3 mps 740 mmHg 54%
17:00 +28°C° 0.1 mm 3 mps 740 mmHg 59%
18:00 +27°C° 0.1 mm 3 mps 740 mmHg 63%
19:00 +25°C° 0.1 mm 4 mps 740 mmHg 68%
20:00 +23°C° 0 mm 4 mps 741 mmHg 69%
21:00 +22°C° 0 mm 4 mps 741 mmHg 70%
22:00 +21°C° 0 mm 4 mps 741 mmHg 72%
23:00 +20°C° 0 mm 4 mps 741 mmHg 73%

13 July, Monday

Time Temperature Precipitation Wind Pressure Humidity
00:00 +19°C° 0 mm 4 mps 741 mmHg 73%
01:00 +19°C° 0 mm 4 mps 741 mmHg 74%
02:00 +18°C° 0 mm 4 mps 741 mmHg 75%
03:00 +18°C° 0 mm 4 mps 740 mmHg 75%
04:00 +17°C° 0 mm 4 mps 740 mmHg 76%
05:00 +18°C° 0 mm 4 mps 740 mmHg 70%
06:00 +19°C° 0 mm 4 mps 740 mmHg 65%
07:00 +20°C° 0 mm 5 mps 741 mmHg 60%
08:00 +22°C° 0 mm 4 mps 741 mmHg 53%
09:00 +23°C° 0 mm 4 mps 741 mmHg 47%
10:00 +26°C° 0 mm 4 mps 741 mmHg 41%
11:00 +27°C° 0 mm 4 mps 740 mmHg 39%
12:00 +27°C° 0 mm 4 mps 740 mmHg 37%
13:00 +28°C° 0 mm 4 mps 740 mmHg 35%
14:00 +28°C° 0 mm 4 mps 739 mmHg 36%
15:00 +28°C° 0 mm 4 mps 739 mmHg 37%
16:00 +28°C° 0 mm 4 mps 739 mmHg 38%
17:00 +26°C° 0 mm 4 mps 739 mmHg 43%
18:00 +25°C° 0 mm 4 mps 739 mmHg 48%
19:00 +22°C° 0 mm 4 mps 739 mmHg 54%
20:00 +21°C° 0 mm 4 mps 739 mmHg 56%
21:00 +19°C° 0 mm 4 mps 739 mmHg 59%
22:00 +18°C° 0 mm 4 mps 739 mmHg 62%
23:00 +17°C° 0 mm 4 mps 739 mmHg 64%

14 July, Tuesday

Time Temperature Precipitation Wind Pressure Humidity
00:00 +17°C° 0 mm 4 mps 739 mmHg 67%
01:00 +15°C° 0 mm 4 mps 739 mmHg 69%
02:00 +15°C° 0 mm 4 mps 739 mmHg 70%
03:00 +14°C° 0 mm 4 mps 739 mmHg 70%
04:00 +14°C° 0 mm 4 mps 739 mmHg 70%
05:00 +17°C° 0 mm 4 mps 739 mmHg 66%
06:00 +18°C° 0 mm 3 mps 739 mmHg 62%
07:00 +20°C° 0 mm 3 mps 739 mmHg 58%
08:00 +22°C° 0 mm 3 mps 739 mmHg 53%
09:00 +24°C° 0 mm 3 mps 739 mmHg 49%
10:00 +26°C° 0 mm 2 mps 739 mmHg 45%
11:00 +27°C° 0 mm 2 mps 739 mmHg 42%
12:00 +28°C° 0 mm 2 mps 739 mmHg 40%
13:00 +29°C° 0 mm 2 mps 739 mmHg 38%
14:00 +29°C° 0 mm 2 mps 739 mmHg 38%
15:00 +30°C° 0 mm 2 mps 739 mmHg 38%
16:00 +30°C° 0 mm 2 mps 738 mmHg 38%
17:00 +28°C° 0 mm 2 mps 738 mmHg 44%
18:00 +26°C° 0 mm 1 mps 738 mmHg 50%
19:00 +24°C° 0 mm 1 mps 738 mmHg 57%
20:00 +23°C° 0 mm 1 mps 739 mmHg 59%
21:00 +22°C° 0 mm 1 mps 739 mmHg 61%
22:00 +20°C° 0 mm 2 mps 739 mmHg 63%
23:00 +20°C° 0 mm 2 mps 739 mmHg 64%

15 July, Wednesday

Time Temperature Precipitation Wind Pressure Humidity
00:00 +19°C° 0 mm 2 mps 740 mmHg 64%
01:00 +19°C° 0 mm 2 mps 740 mmHg 65%
02:00 +19°C° 0 mm 2 mps 740 mmHg 66%
03:00 +18°C° 0 mm 2 mps 739 mmHg 66%
04:00 +18°C° 0 mm 2 mps 739 mmHg 67%
05:00 +20°C° 0 mm 2 mps 740 mmHg 63%
06:00 +23°C° 0 mm 1 mps 740 mmHg 59%
07:00 +24°C° 0 mm 1 mps 740 mmHg 56%
08:00 +26°C° 0 mm 1 mps 740 mmHg 52%
09:00 +28°C° 0 mm 1 mps 740 mmHg 49%
10:00 +30°C° 0 mm 1 mps 740 mmHg 45%
11:00 +30°C° 0 mm 2 mps 740 mmHg 43%
12:00 +30°C° 0 mm 2 mps 740 mmHg 41%
13:00 +31°C° 0 mm 3 mps 740 mmHg 39%
14:00 +30°C° 0 mm 3 mps 740 mmHg 40%
15:00 +30°C° 0 mm 3 mps 739 mmHg 40%
16:00 +30°C° 0 mm 3 mps 739 mmHg 41%
17:00 +28°C° 0 mm 2 mps 739 mmHg 48%
18:00 +25°C° 0 mm 2 mps 739 mmHg 56%
19:00 +23°C° 0 mm 1 mps 739 mmHg 63%
20:00 +22°C° 0 mm 1 mps 739 mmHg 65%
21:00 +21°C° 0 mm 1 mps 740 mmHg 67%
22:00 +20°C° 0 mm 1 mps 740 mmHg 69%
23:00 +20°C° 0 mm 1 mps 740 mmHg 69%
Show more